Springfield, MO

5:00 PM CDT on April 27, 2017 (GMT -0500)
Springfield-Branson Regional

Weather History for KSGF - October, 2012

Change the Weather History Date:

Thursday, October 11, 2012

  Actual Average Record
Temperature  
Mean Temperature 54 °F 59 °F  
Max Temperature 62 °F 71 °F 91 °F (1963)
Min Temperature 45 °F 48 °F 32 °F (1987)
Degree Days  
Heating Degree Days 11 7  
Month to date heating degree days 142 63  
Since 1 July heating degree days 183 118  
Cooling Degree Days 0 1  
Month to date cooling degree days 1 17  
Year to date cooling degree days 1744 1376  
Growing Degree Days 2 (Base 50)    
Moisture  
Dew Point 45 °F    
Average Humidity 68    
Maximum Humidity 80    
Minimum Humidity 56    
Precipitation  
Precipitation 0.01 in 0.10 in 1.95 in (1929)
Month to date precipitation 0.18 1.29  
Year to date precipitation 24.70 36.01  
Snow  
Snow 0.00 in - - ()
Month to date snowfall 0.0  
Since 1 July snowfall 0.0  
Since 1 September snowfall 0.0  
Snow Depth 0.00 in    
Sea Level Pressure  
Sea Level Pressure 30.14 in    
Wind  
Wind Speed 11 mph (SSE)    
Max Wind Speed 18 mph    
Max Gust Speed 23 mph    
Visibility 10 miles    
Events Rain    
T = Trace of Precipitation, MM = Missing Value Source: NWS Daily Summary

Daily Weather History Graph

Daily Weather History Graph

Search for Another Location

Airport or City:

Trip Planner

Search our weather history database for the weather conditions in past years. The results will help you decide how hot, cold, wet, or windy it might be!

Date:

Astronomy

Oct. 11, 2012 Rise Set
Actual Time 7:18 AM CDT 6:41 PM CDT
Civil Twilight 6:52 AM CDT 7:07 PM CDT
Nautical Twilight 6:21 AM CDT 7:37 PM CDT
Astronomical Twilight 5:51 AM CDT 8:07 PM CDT
Moon 3:02 AM CDT (10/11) 4:13 PM CDT (10/11)
Length of Visible Light 12h 15m
Length of Day
11h 23m
Waning Crescent, 18% of the Moon is Illuminated
Oct 11
Waning Crescent
Oct 15
New
Oct 21
First Quarter
Oct 29
Full
Nov 6
Last Quarter

Hourly Weather History & Observations

Time (CDT) Temp. Windchill Dew Point Humidity Pressure Visibility Wind Dir Wind Speed Gust Speed Precip Events Conditions
12:52 AM 44.1 °F 39.5 °F 34.0 °F 68% 30.18 in 10.0 mi SSE 8.1 mph - N/A   Clear
1:52 AM 45.0 °F 39.7 °F 35.1 °F 68% 30.16 in 10.0 mi SSE 10.4 mph - N/A   Clear
2:52 AM 48.0 °F - 36.0 °F 63% 30.15 in 10.0 mi SSE 8.1 mph - N/A   Overcast
3:52 AM 50.0 °F - 36.0 °F 59% 30.14 in 10.0 mi SSE 10.4 mph - N/A   Overcast
4:52 AM 51.1 °F - 37.0 °F 59% 30.14 in 10.0 mi SSE 10.4 mph - N/A   Overcast
5:52 AM 51.1 °F - 37.9 °F 61% 30.15 in 10.0 mi SSE 10.4 mph - N/A   Overcast
6:38 AM 51.8 °F - 39.2 °F 62% 30.16 in 10.0 mi SSE 10.4 mph - N/A   Overcast
6:52 AM 52.0 °F - 39.0 °F 61% 30.16 in 10.0 mi SSE 10.4 mph - N/A   Overcast
7:52 AM 52.0 °F - 39.0 °F 61% 30.17 in 10.0 mi SSE 13.8 mph - N/A   Overcast
8:52 AM 52.0 °F - 39.0 °F 61% 30.18 in 10.0 mi SSE 15.0 mph - N/A   Overcast
9:52 AM 54.0 °F - 42.1 °F 64% 30.19 in 10.0 mi SSE 12.7 mph - N/A   Overcast
10:52 AM 55.0 °F - 43.0 °F 64% 30.19 in 10.0 mi SSE 13.8 mph - N/A   Overcast
11:52 AM 55.0 °F - 44.1 °F 67% 30.18 in 10.0 mi SSE 13.8 mph - N/A   Overcast
12:52 PM 55.9 °F - 45.0 °F 67% 30.17 in 10.0 mi SSE 12.7 mph - N/A   Overcast
1:52 PM 57.9 °F - 46.9 °F 67% 30.14 in 10.0 mi SSE 12.7 mph - N/A   Overcast
2:52 PM 59.0 °F - 48.2 °F 67% 30.12 in 10.0 mi SSE 10.4 mph - N/A   Overcast
3:52 PM 60.1 °F - 48.9 °F 67% 30.09 in 10.0 mi SSE 13.8 mph - N/A   Overcast
4:52 PM 60.1 °F - 50.0 °F 69% 30.08 in 10.0 mi South 10.4 mph - N/A   Overcast
5:28 PM 60.8 °F - 50.0 °F 68% 30.08 in 10.0 mi SSE 11.5 mph - N/A   Overcast
5:52 PM 60.8 °F - 50.0 °F 68% 30.08 in 10.0 mi SSE 10.4 mph - N/A   Overcast
6:52 PM 60.1 °F - 52.0 °F 75% 30.08 in 10.0 mi South 11.5 mph - N/A   Overcast
7:38 PM 59.0 °F - 51.8 °F 77% 30.11 in 10.0 mi SSE 6.9 mph - N/A   Overcast
7:52 PM 59.0 °F - 51.8 °F 77% 30.12 in 10.0 mi SSE 8.1 mph - N/A   Overcast
8:13 PM 59.0 °F - 51.8 °F 77% 30.13 in 10.0 mi SE 10.4 mph - N/A   Overcast
8:52 PM 57.9 °F - 50.0 °F 75% 30.14 in 10.0 mi SSE 8.1 mph - N/A   Overcast
9:52 PM 57.2 °F - 51.8 °F 82% 30.16 in 10.0 mi SSE 5.8 mph - N/A Rain Light Rain
10:00 PM 55.4 °F - 51.8 °F 88% 30.15 in 8.0 mi SSE 10.4 mph - 0.01 in Rain Light Rain
10:10 PM 55.4 °F - 51.8 °F 88% 30.15 in 10.0 mi SSE 11.5 mph - 0.01 in   Overcast
10:52 PM 55.9 °F - 51.1 °F 84% 30.14 in 10.0 mi South 4.6 mph - 0.01 in   Overcast
11:18 PM 55.4 °F - 51.8 °F 88% 30.16 in 10.0 mi SE 4.6 mph - N/A   Overcast
11:52 PM 57.2 °F - 51.8 °F 82% 30.17 in 10.0 mi SSE 6.9 mph - N/A   Overcast